Location: Unspecified
(42.3650°N, 71.1030°W)
Time: 16:34:35
(UTC+00:00)

Tiros 1 - Pass Details

Date: 25 June 2024
Orbit: 624 x 656 km, 48.4° (Epoch: 13 July)

Event Time Altitude Azimuth Distance (km) Brightness Sun altitude
Rises 03:01:51 0° 218° (SW) 2,889 - -19.9°
Reaches altitude 10° 03:04:15 10° 211° (SSW) 1,985 - -20.1°
Maximum altitude 03:08:31 40° 142° (SE) 925 - -20.4°
Exits shadow 03:10:38 25° 90° (E) 1,279 8.4 -20.6°
Drops below altitude 10° 03:12:48 10° 73° (ENE) 1,999 9.6 -20.7°
Sets 03:15:13 0° 66° (ENE) 2,912 10.5 -20.9°
